[[{"header":{"parameterUnit":"m.s-1","parameterCategory":1,"la1":30.2991,"la2":30.254,"lo1":-89.0895,"lo2":-89.0444,"dy":0.0017,"dx":0.0017,"nx":28,"ny":28,"refTime":"2024-09-28T03:00:00:Z","depth":0,"parameterNumber":2,"parameterNumberName":"U-component_of_WINDS"},"data":[0,0,0,0,0,0,0,0,0,0,0,0,0,0,0,0,0,0,0,0,0,0,0,0,0,0,0,0,0,0,0,0,0,0,0,0,0,0,0,0,0,0,0,0,0,0,0,0,0,0,0,0,0,0,0,0,0,0,2.2804,2.2805,0,2.2834,2.2834,2.2834,2.2792,2.279,2.2789,2.2787,2.2816,2.2819,2.2821,0,0,0,0,0,0,0,0,0,0,0,0,0,2.2711,2.2713,2.2804,2.2805,2.2805,2.2834,2.2834,2.2834,2.2792,2.279,2.2788,2.2787,2.2816,2.2818,2.2821,0,0,0,0,0,0,0,0,0,0,0,0,0,2.2747,2.2713,2.2804,2.2788,2.2786,2.2834,2.2834,2.2835,2.2792,2.279,2.2788,2.2786,2.2815,2.2818,2.2821,2.2886,0,0,2.2831,2.2833,0,0,0,0,0,0,0,0,2.2745,2.275,2.279,2.2789,2.2787,2.2807,2.2812,2.2852,2.2793,2.279,2.2787,2.2785,2.2815,2.2818,2.2828,2.2888,2.2889,2.2832,2.2833,2.2835,2.2836,0,0,0,0,0,0,0,2.2742,2.2749,2.2816,2.279,2.2789,2.2778,2.2781,2.2819,2.2815,2.279,2.2787,2.2791,2.2814,2.2825,2.2829,2.2889,2.2831,2.2834,2.2836,2.2838,2.3002,2.3004,0,0,0,0,0,0,2.2742,2.2747,2.2815,2.2817,2.276,2.2782,2.2785,2.2803,2.2814,2.2814,2.2793,2.2789,2.2821,2.2825,2.283,2.2906,2.2835,2.2838,2.284,2.3,2.3003,2.3005,0,0,0,0,0,0,2.274,2.2749,2.2814,2.2781,2.2789,2.2786,2.2806,2.2805,2.2816,2.2816,2.2815,2.2806,2.2819,2.2825,2.2872,2.2906,2.2839,2.2842,2.2997,2.3001,2.3004,2.3059,0,0,0,0,0,0,2.2738,2.2748,2.2773,2.2782,2.2791,2.2857,2.2809,2.2807,2.2822,2.2817,2.2828,2.2828,2.2818,2.2868,2.2876,2.291,2.2845,2.2994,2.2999,2.3003,2.3054,2.3064,2.3073,0,0,0,0,0,2.2735,2.2787,2.2775,2.2783,2.2822,2.2859,2.2863,2.2852,2.2825,2.285,2.285,2.2827,2.2901,2.2873,2.2881,2.2917,2.2992,2.2997,2.3003,2.305,2.3062,2.3073,0,0,0,0,0,0,2.2782,2.2788,2.2774,2.2832,2.2845,2.2851,2.2882,2.2865,2.2886,2.288,2.2865,2.2867,2.2918,2.2922,2.289,2.298,2.2942,2.2949,2.2975,2.2987,2.2996,2.2994,2.2848,0,0,0,0,0,2.28,2.283,2.2833,2.2883,2.2891,2.2886,2.2901,2.2891,2.2904,2.2909,2.2913,2.2926,2.2952,2.297,2.2994,2.3055,2.3056,2.3083,2.3093,2.31,2.3107,2.3138,2.315,2.3023,2.3023,2.3023,0,0,2.2836,2.2843,2.2862,2.2893,2.2902,2.2933,2.2891,2.2925,2.2947,2.2914,2.2959,2.2962,2.2976,2.303,2.3054,2.3035,2.3142,2.3107,2.3113,2.3115,2.3145,2.3157,2.3168,2.3027,2.3026,2.3026,0,0,2.2917,2.2926,2.2968,2.2978,2.2992,2.2988,2.2999,2.3008,2.3009,2.3053,2.3029,2.3055,2.3101,2.3111,2.3123,2.3208,2.3188,2.3216,2.3264,2.3295,2.3305,2.3314,2.3344,2.3355,2.3222,2.3223,2.3223,0,2.296,2.3006,2.2992,2.3028,2.3042,2.3014,2.3056,2.3067,2.3088,2.3098,2.3077,2.3133,2.314,2.3196,2.3217,2.3227,2.3238,2.3214,2.3305,2.3314,2.3322,2.335,2.3361,2.3226,2.3226,2.3225,2.3225,0,2.3057,2.3089,2.3122,2.3143,2.3161,2.32,2.3192,2.3212,2.32,2.3198,2.3244,2.3251,2.3276,2.3289,2.3278,2.3343,2.3331,2.3308,2.3269,2.3337,2.3363,2.3374,2.3231,2.3229,2.3228,2.3228,0,0,2.317,2.3183,2.3195,2.3204,2.3218,2.3242,2.328,2.3304,2.3321,2.3337,2.3367,2.3406,2.3385,2.3398,2.3387,2.3415,2.3481,2.3388,2.3388,2.3405,2.3553,2.357,2.3583,2.3468,2.347,2.3471,2.3552,0,2.325,2.3316,2.3304,2.3368,2.3397,2.337,2.3402,2.3414,2.3413,2.3438,2.3436,2.3464,2.3434,2.3441,2.3468,2.3467,2.351,2.3462,2.3496,2.3497,2.3493,2.3597,2.3615,2.369,2.3562,2.3563,2.3565,0,2.3353,2.3373,2.3439,2.3447,2.3459,2.3489,2.351,2.3533,2.3546,2.3543,2.3558,2.3542,2.3579,2.354,2.3591,2.3558,2.3571,2.3573,2.3576,2.3578,2.3535,2.3601,2.3714,2.3725,2.3581,2.358,2.3578,0,2.3428,2.3471,2.3516,2.3524,2.3535,2.3557,2.3562,2.3572,2.3588,2.3606,2.3616,2.3638,2.3651,2.3668,2.3659,2.3632,2.3711,2.3672,2.3709,2.371,2.3727,2.3726,2.3843,2.3737,2.3736,2.3736,2.3736,0,2.3519,2.3561,2.3549,2.3577,2.3622,2.3609,2.3654,2.3656,2.3665,2.3693,2.3671,2.3697,2.3683,2.3708,2.3701,2.3743,2.3749,2.3748,2.3745,2.375,2.375,2.3758,2.3752,2.3739,2.3739,2.3738,2.3737,0,2.361,2.3605,2.3652,2.3658,2.3661,2.3694,2.3699,2.3725,2.3722,2.3757,2.3764,2.376,2.3788,2.3781,2.3811,2.3806,2.386,2.3851,2.3856,2.3853,2.3892,2.3888,2.4018,2.4034,2.3917,2.3918,2.3919,0,2.3669,2.37,2.371,2.3726,2.3734,2.3761,2.3776,2.3764,2.3781,2.3797,2.382,2.3846,2.3866,2.3912,2.3912,2.3935,2.3926,2.397,2.393,2.3933,2.3926,2.3924,2.3927,2.3978,2.3979,2.3981,2.3981,0,2.3773,2.3768,2.3791,2.3814,2.3833,2.3849,2.3864,2.3879,2.3867,2.3887,2.3916,2.3931,2.3962,2.3988,2.4009,2.4014,2.3996,2.3994,2.4004,2.4009,2.401,2.4009,2.3877,2.3991,2.399,2.3989,2.3989,2.3989,2.3849,2.3875,2.3886,2.3912,2.3922,2.3936,2.396,2.3961,2.3984,2.4008,2.4,2.4032,2.4043,2.4069,2.4077,2.4102,2.4085,2.41,2.4103,2.4107,2.4111,2.4006,2.4106,2.4105,2.4105,2.4105,2.4105,0,2.3952,2.3957,2.3981,2.4003,2.4023,2.4004,2.4019,2.4038,2.4066,2.4078,2.4098,2.4131,2.4155,2.4157,2.418,2.42,2.4192,2.4206,2.4205,2.4206,2.4125,2.4114,2.4212,2.4212,2.4212,2.4212,2.4212,2.4212,2.4007,2.4051,2.4047,2.4095,2.41,2.4131,2.4141,2.4154,2.4163,2.42,2.4221,2.4222,2.4229,2.4253,2.4275,2.4274,2.4284,2.4301,2.4298,2.4222,2.4212,2.4201,2.4191,2.4304,2.4304,2.4376,2.4377,2.4378]},{"header":{"parameterUnit":"m.s-1","parameterCategory":1,"la1":30.2991,"la2":30.254,"lo1":-89.0895,"lo2":-89.0444,"dy":0.0017,"dx":0.0017,"nx":28,"ny":28,"refTime":"2024-09-28T03:00:00:Z","depth":0,"parameterNumber":3,"parameterNumberName":"V-component_of_WINDS"},"data":[0,0,0,0,0,0,0,0,0,0,0,0,0,0,0,0,0,0,0,0,0,0,0,0,0,0,0,0,0,0,0,0,0,0,0,0,0,0,0,0,0,0,0,0,0,0,0,0,0,0,0,0,0,0,0,0,0,0,-0.4603,-0.4604,0,-0.4684,-0.4685,-0.4686,-0.472,-0.472,-0.472,-0.4719,-0.4803,-0.4806,-0.4808,0,0,0,0,0,0,0,0,0,0,0,0,0,-0.4479,-0.4482,-0.4603,-0.4604,-0.4605,-0.4684,-0.4685,-0.4686,-0.472,-0.472,-0.4719,-0.4719,-0.4803,-0.4805,-0.4808,0,0,0,0,0,0,0,0,0,0,0,0,0,-0.4544,-0.4482,-0.4603,-0.4632,-0.4635,-0.4684,-0.4685,-0.4687,-0.472,-0.472,-0.4719,-0.4719,-0.4802,-0.4805,-0.4809,-0.4836,0,0,-0.482,-0.4821,0,0,0,0,0,0,0,0,-0.454,-0.4549,-0.4626,-0.463,-0.4634,-0.4692,-0.4672,-0.4737,-0.472,-0.4688,-0.4719,-0.4719,-0.4767,-0.4773,-0.4789,-0.484,-0.4843,-0.482,-0.4822,-0.4824,-0.4825,0,0,0,0,0,0,0,-0.4536,-0.4545,-0.4635,-0.4628,-0.4632,-0.4641,-0.465,-0.4685,-0.4728,-0.469,-0.4693,-0.4702,-0.4768,-0.4785,-0.4791,-0.4844,-0.482,-0.4823,-0.4825,-0.4827,-0.4922,-0.4922,0,0,0,0,0,0,-0.4526,-0.4541,-0.4633,-0.4638,-0.4585,-0.4643,-0.4653,-0.4673,-0.4727,-0.4735,-0.4702,-0.4703,-0.4779,-0.4787,-0.4794,-0.4829,-0.4824,-0.4827,-0.4829,-0.4921,-0.4922,-0.4922,0,0,0,0,0,0,-0.4524,-0.4534,-0.463,-0.459,-0.4603,-0.4646,-0.4668,-0.4675,-0.4692,-0.4736,-0.4744,-0.4711,-0.4779,-0.4789,-0.4825,-0.4832,-0.4829,-0.4832,-0.4921,-0.4921,-0.4922,-0.4899,0,0,0,0,0,0,-0.452,-0.4533,-0.4544,-0.459,-0.4605,-0.4659,-0.4668,-0.4677,-0.4698,-0.47,-0.4747,-0.4754,-0.478,-0.4819,-0.4829,-0.4837,-0.4835,-0.492,-0.4921,-0.4922,-0.49,-0.4899,-0.4899,0,0,0,0,0,-0.4515,-0.4534,-0.4544,-0.4555,-0.4619,-0.4659,-0.4668,-0.4696,-0.4698,-0.4709,-0.4738,-0.4753,-0.483,-0.4823,-0.4833,-0.4843,-0.492,-0.4921,-0.4922,-0.49,-0.4899,-0.4899,0,0,0,0,0,0,-0.4488,-0.4541,-0.4552,-0.4587,-0.4618,-0.4665,-0.4679,-0.4695,-0.4726,-0.4727,-0.4762,-0.4772,-0.4805,-0.4828,-0.4819,-0.4872,-0.4876,-0.4879,-0.4856,-0.4856,-0.4855,-0.4849,-0.4838,0,0,0,0,0,-0.4486,-0.4513,-0.4559,-0.4585,-0.46,-0.4637,-0.4655,-0.4675,-0.4709,-0.4722,-0.4753,-0.4786,-0.4818,-0.4838,-0.487,-0.4903,-0.4914,-0.4915,-0.4915,-0.4914,-0.4916,-0.4935,-0.4936,-0.4925,-0.4925,-0.4925,0,0,-0.4482,-0.4514,-0.453,-0.458,-0.4607,-0.4635,-0.4648,-0.4677,-0.4699,-0.4727,-0.4763,-0.4787,-0.4826,-0.486,-0.4877,-0.488,-0.4922,-0.4915,-0.4914,-0.4917,-0.4936,-0.4937,-0.4938,-0.4925,-0.4925,-0.4925,0,0,-0.4489,-0.4516,-0.4541,-0.4567,-0.4607,-0.4631,-0.4637,-0.4682,-0.4698,-0.4735,-0.4756,-0.4783,-0.4837,-0.4863,-0.4884,-0.4901,-0.4916,-0.491,-0.4908,-0.4926,-0.4927,-0.4928,-0.4934,-0.4936,-0.4912,-0.4912,-0.4912,0,-0.4479,-0.4522,-0.4552,-0.458,-0.4601,-0.4628,-0.4653,-0.4677,-0.4725,-0.474,-0.4743,-0.4811,-0.4839,-0.488,-0.4884,-0.49,-0.4908,-0.4905,-0.4924,-0.4926,-0.4927,-0.4933,-0.4935,-0.4911,-0.4911,-0.4912,-0.4912,0,-0.4508,-0.4537,-0.4553,-0.4598,-0.4621,-0.4648,-0.4682,-0.4702,-0.4719,-0.4743,-0.478,-0.4814,-0.4853,-0.4864,-0.4882,-0.4908,-0.4909,-0.4917,-0.4922,-0.4927,-0.4933,-0.4935,-0.491,-0.491,-0.4911,-0.4911,0,0,-0.45,-0.4561,-0.4566,-0.4587,-0.4633,-0.4656,-0.4684,-0.4722,-0.4738,-0.4771,-0.4795,-0.484,-0.4848,-0.4872,-0.4892,-0.4908,-0.4919,-0.4915,-0.4917,-0.4915,-0.495,-0.4944,-0.4946,-0.493,-0.493,-0.4931,-0.4947,0,-0.4513,-0.4564,-0.4591,-0.463,-0.4658,-0.4683,-0.4708,-0.4738,-0.4762,-0.4789,-0.4815,-0.4846,-0.4855,-0.4869,-0.4886,-0.4914,-0.4927,-0.4913,-0.4953,-0.4954,-0.4942,-0.4949,-0.4942,-0.4956,-0.495,-0.495,-0.4951,0,-0.4536,-0.4567,-0.4609,-0.4651,-0.4664,-0.4685,-0.4722,-0.4747,-0.4783,-0.4799,-0.4824,-0.4845,-0.4875,-0.4878,-0.492,-0.4911,-0.4928,-0.4945,-0.4946,-0.4951,-0.4952,-0.4954,-0.4961,-0.4963,-0.4955,-0.4954,-0.4954,0,-0.4526,-0.4578,-0.461,-0.4627,-0.4677,-0.4692,-0.4713,-0.4749,-0.4769,-0.4802,-0.4816,-0.4851,-0.487,-0.4898,-0.4927,-0.4926,-0.4967,-0.4972,-0.4981,-0.498,-0.4989,-0.4988,-0.4999,-0.5,-0.5,-0.5,-0.5,0,-0.4537,-0.4562,-0.4606,-0.4626,-0.4654,-0.4685,-0.4712,-0.4736,-0.4767,-0.4792,-0.4816,-0.4839,-0.4876,-0.4904,-0.4927,-0.4959,-0.4968,-0.4982,-0.4988,-0.498,-0.4978,-0.4992,-0.4992,-0.5,-0.5,-0.5,-0.5,0,-0.4531,-0.4562,-0.4598,-0.4642,-0.4654,-0.4673,-0.4711,-0.4731,-0.4755,-0.4786,-0.4796,-0.4834,-0.4868,-0.49,-0.4945,-0.4961,-0.4993,-0.5,-0.498,-0.4984,-0.4991,-0.499,-0.5012,-0.5016,-0.5014,-0.5014,-0.5014,0,-0.4537,-0.4556,-0.4602,-0.462,-0.4641,-0.467,-0.4691,-0.4723,-0.4744,-0.4786,-0.4801,-0.4836,-0.4866,-0.4919,-0.4951,-0.4986,-0.4995,-0.5,-0.5,-0.4991,-0.4995,-0.4993,-0.4995,-0.4999,-0.4999,-0.4999,-0.4999,0,-0.4543,-0.4557,-0.4586,-0.4621,-0.4645,-0.4674,-0.4704,-0.4718,-0.4755,-0.4778,-0.4812,-0.4835,-0.4881,-0.4916,-0.4954,-0.4977,-0.4994,-0.4998,-0.5003,-0.4995,-0.4982,-0.4989,-0.4979,-0.4998,-0.4998,-0.4998,-0.4998,-0.4998,-0.4543,-0.4561,-0.4596,-0.4628,-0.4654,-0.4681,-0.4702,-0.4729,-0.4758,-0.4797,-0.4814,-0.4849,-0.4884,-0.4938,-0.496,-0.4988,-0.4992,-0.4998,-0.5,-0.5001,-0.4999,-0.4977,-0.4995,-0.4995,-0.4996,-0.4996,-0.4996,0,-0.4551,-0.4574,-0.4603,-0.4644,-0.4669,-0.4682,-0.4716,-0.4736,-0.4766,-0.4798,-0.4826,-0.4866,-0.49,-0.4935,-0.4971,-0.4986,-0.4995,-0.4995,-0.4994,-0.4999,-0.4993,-0.4986,-0.4987,-0.4987,-0.4987,-0.4987,-0.4987,-0.4987,-0.4558,-0.4589,-0.4607,-0.4652,-0.4676,-0.471,-0.4728,-0.4753,-0.4778,-0.4821,-0.4849,-0.4871,-0.4904,-0.4942,-0.4974,-0.4984,-0.4996,-0.4993,-0.5005,-0.4999,-0.4999,-0.5,-0.4993,-0.4996,-0.4996,-0.5008,-0.5008,-0.5008]}]]